Hawthorne, CA

11:24 AM PDT on October 22, 2017 (GMT -0700)
Northrop-Hawthorne Municipal

Weather History for KHHR - March, 2014

Change the Weather History Date:

Wednesday, March 26, 2014

  Actual Average Record
Temperature  
Mean Temperature 60 °F -  
Max Temperature 66 °F 65 °F 95 °F (1988)
Min Temperature 57 °F 52 °F 42 °F (1948)
Degree Days  
Heating Degree Days 4    
Growing Degree Days 10 (Base 50)    
Moisture  
Dew Point 48 °F    
Average Humidity 65    
Maximum Humidity 88    
Minimum Humidity 48    
Precipitation  
Precipitation 0.02 in - - ()
Sea Level Pressure  
Sea Level Pressure 29.94 in    
Wind  
Wind Speed 10 mph (West)    
Max Wind Speed 24 mph    
Max Gust Speed 32 mph    
Visibility 10 miles    
Events Rain    
Averages and records for this station are not official NWS values.
T = Trace of Precipitation, MM = Missing Value Source: NWS Daily Summary

Daily Weather History Graph

Daily Weather History Graph

Search for Another Location

Airport or City:

Trip Planner

Search our weather history database for the weather conditions in past years. The results will help you decide how hot, cold, wet, or windy it might be!

Date:

Astronomy

Mar. 26, 2014 Rise Set
Actual Time 6:48 AM PDT 7:09 PM PDT
Civil Twilight 6:23 AM PDT 7:34 PM PDT
Nautical Twilight 5:54 AM PDT 8:03 PM PDT
Astronomical Twilight 5:24 AM PDT 8:33 PM PDT
Moon 3:49 AM PDT (3/26) 3:04 PM PDT (3/26)
Length of Visible Light 13h 10m
Length of Day
12h 20m
Waning Crescent, 21% of the Moon is Illuminated
Mar 26
Waning Crescent
Mar 30
New
Apr 7
First Quarter
Apr 15
Full
Apr 22
Last Quarter

Hourly Weather History & Observations

Time (PDT) Temp. Dew Point Humidity Pressure Visibility Wind Dir Wind Speed Gust Speed Precip Events Conditions
12:50 AM 59.0 °F 48.2 °F 67% 29.92 in 10.0 mi WSW 5.8 mph - N/A   Overcast
12:53 AM 59.0 °F 48.9 °F 69% 29.92 in 10.0 mi SW 4.6 mph - N/A   Overcast
1:53 AM 57.9 °F 50.0 °F 75% 29.91 in 10.0 mi WSW 4.6 mph - N/A   Overcast
2:53 AM 57.0 °F 52.0 °F 83% 29.91 in 10.0 mi WSW 4.6 mph - 0.00 in   Overcast
3:07 AM 57.2 °F 53.6 °F 88% 29.90 in 10.0 mi WSW 4.6 mph - N/A   Overcast
3:28 AM 57.2 °F 51.8 °F 82% 29.90 in 10.0 mi WNW 4.6 mph - N/A   Overcast
3:53 AM 57.0 °F 51.1 °F 81% 29.90 in 9.0 mi West 9.2 mph - 0.02 in Rain Light Rain
4:08 AM 57.2 °F 51.8 °F 82% 29.89 in 10.0 mi West 5.8 mph - 0.00 in   Mostly Cloudy
4:53 AM 57.0 °F 48.9 °F 74% 29.89 in 10.0 mi West 10.4 mph - 0.00 in   Mostly Cloudy
5:53 AM 57.0 °F 48.9 °F 74% 29.90 in 10.0 mi West 8.1 mph - N/A   Scattered Clouds
6:04 AM 57.2 °F 48.2 °F 72% 29.90 in 10.0 mi West 10.4 mph - N/A   Mostly Cloudy
6:15 AM 57.2 °F 48.2 °F 72% 29.91 in 10.0 mi West 9.2 mph 16.1 mph N/A   Scattered Clouds
6:53 AM 57.0 °F 48.0 °F 72% 29.92 in 10.0 mi West 6.9 mph - N/A   Clear
7:53 AM 57.9 °F 46.9 °F 67% 29.94 in 10.0 mi West 11.5 mph - N/A   Mostly Cloudy
8:53 AM 59.0 °F 48.0 °F 67% 29.95 in 10.0 mi West 11.5 mph 19.6 mph N/A   Mostly Cloudy
9:05 AM 60.8 °F 48.2 °F 63% 29.95 in 10.0 mi West 11.5 mph 19.6 mph N/A   Scattered Clouds
9:32 AM 60.8 °F 48.2 °F 63% 29.96 in 10.0 mi West 11.5 mph 17.3 mph N/A   Mostly Cloudy
9:53 AM 60.1 °F 48.9 °F 67% 29.96 in 10.0 mi West 13.8 mph 20.7 mph N/A   Mostly Cloudy
10:05 AM 60.8 °F 48.2 °F 63% 29.97 in 10.0 mi West 15.0 mph 24.2 mph N/A   Scattered Clouds
10:53 AM 64.0 °F 46.9 °F 54% 29.97 in 10.0 mi West 19.6 mph 23.0 mph N/A   Clear
11:07 AM 64.4 °F 46.4 °F 52% 29.96 in 1.8 mi West 13.8 mph 23.0 mph N/A   Haze
11:22 AM 64.4 °F 46.4 °F 52% 29.97 in 10.0 mi West 19.6 mph 26.5 mph N/A   Partly Cloudy
11:53 AM 64.9 °F 48.0 °F 54% 29.97 in 10.0 mi West 16.1 mph 25.3 mph N/A   Scattered Clouds
12:10 PM 64.4 °F 46.4 °F 52% 29.97 in 10.0 mi West 18.4 mph 28.8 mph N/A   Mostly Cloudy
12:53 PM 64.9 °F 48.0 °F 54% 29.97 in 10.0 mi West 20.7 mph 27.6 mph N/A   Overcast
1:28 PM 64.4 °F 48.2 °F 56% 29.96 in 10.0 mi WSW 18.4 mph 27.6 mph N/A   Mostly Cloudy
1:53 PM 64.9 °F 46.9 °F 52% 29.96 in 10.0 mi WSW 21.9 mph 28.8 mph N/A   Mostly Cloudy
2:17 PM 64.4 °F 46.4 °F 52% 29.94 in 10.0 mi WSW 23.0 mph 31.1 mph N/A   Mostly Cloudy
2:53 PM 64.9 °F 45.0 °F 48% 29.93 in 10.0 mi West 19.6 mph 28.8 mph N/A   Scattered Clouds
3:06 PM 64.4 °F 46.4 °F 52% 29.93 in 10.0 mi West 24.2 mph 32.2 mph N/A   Mostly Cloudy
3:53 PM 64.0 °F 46.9 °F 54% 29.94 in 10.0 mi WSW 18.4 mph 29.9 mph N/A   Mostly Cloudy
4:53 PM 62.1 °F 48.9 °F 62% 29.94 in 10.0 mi West 13.8 mph 21.9 mph N/A   Overcast
5:53 PM 61.0 °F 48.9 °F 64% 29.94 in 10.0 mi West 15.0 mph 25.3 mph N/A   Mostly Cloudy
6:00 PM 60.8 °F 48.2 °F 63% 29.94 in 10.0 mi West 15.0 mph 24.2 mph N/A   Scattered Clouds
6:53 PM 60.1 °F 48.9 °F 67% 29.94 in 10.0 mi West 16.1 mph 27.6 mph N/A   Scattered Clouds
7:04 PM 60.8 °F 48.2 °F 63% 29.95 in 10.0 mi West 12.7 mph 23.0 mph N/A   Mostly Cloudy
7:53 PM 59.0 °F 48.0 °F 67% 29.96 in 10.0 mi West 10.4 mph 21.9 mph N/A   Mostly Cloudy
8:53 PM 59.0 °F 48.9 °F 69% 29.97 in 10.0 mi West 8.1 mph 20.7 mph N/A   Mostly Cloudy
9:27 PM 59.0 °F 46.4 °F 63% 29.98 in 10.0 mi West 10.4 mph 21.9 mph N/A   Scattered Clouds
9:53 PM 59.0 °F 48.9 °F 69% 29.98 in 10.0 mi West 13.8 mph 24.2 mph N/A   Scattered Clouds
11:53 PM 57.9 °F 48.9 °F 72% 29.99 in 10.0 mi West 12.7 mph 19.6 mph N/A   Partly Cloudy